Regional Weather Roundup
Issued by NWS Goodland, KS

Home | Current Version | Previous Version | Graphics & Text | Print | Product List | Glossary On
Versions: 1 2 3 4 5 6 7 8 9 10 11 12 13 14 15 16 17 18 19 20 21 22 23 24 25 26 27 28 29 30 31 32 33 34 35 36 37 38 39 40 41 42 43 44 45 46 47 48 49 50
000
ASUS43 KGLD 031308
RWRGLD

GOODLAND FORECAST AREA HOURLY WEATHER ROUNDUP
NATIONAL WEATHER SERVICE GOODLAND KS
700 AM MDT TUE MAY 03 2016

...OFFICIAL OBSERVATIONS...

CITY           SKY/WX    TMP DP  RH WIND       PRES   REMARKS
GOODLAND KS    PTSUNNY   44  40  85 W6        30.08R
HILL CITY KS   FAIR      50  43  77 E5        30.06R
IMPERIAL NEB   FAIR      41  39  93 N8        30.09R
MCCOOK NEB     FAIR      44  42  93 N5        30.06R
AKRON CO       FAIR      40  33  76 NW12      30.13R
BURLINGTON CO  PTSUNNY   46  36  68 NW14      30.09R
LIMON CO       FAIR      39  32  76 NW14      30.15R
$$

...UNOFFICIAL OBSERVATIONS...

CITY           SKY/WX    TMP DP  RH WIND       PRES   REMARKS
COLBY KS       PTSUNNY   45  45 100 W9        30.08S
LENORA KS        N/A     48  32  54 MISG        N/A
NORTON KS      SUNNY     48  43  81 N6        30.05R
SHARON SPRINGS   N/A     43  38  82 CALM        N/A
TRIBUNE KS     FAIR      46  37  71 NW9       30.10
KIT CARSON CO    N/A     41  36  83 MISG        N/A
YUMA CO          N/A     42  37  82 NW10        N/A
$$



USA.gov is the U.S. government's official web portal to all federal, state and local government web resources and services.